TimeGMT,TemperatureF,Dew PointF,Humidity,Sea Level PressureIn,VisibilityMPH,Wind Direction,Wind SpeedMPH,Gust SpeedMPH,PrecipitationIn,Events,Conditions,WindDirDegrees,DateUTC
12:20 AM,37.4,33.8,87,30.04,5.0,WNW,4.6,-,N/A,,Unknown,290,2012-11-06 00:20:00
12:50 AM,35.6,33.8,93,30.04,4.3,WNW,3.5,-,N/A,,Unknown,300,2012-11-06 00:50:00
1:20 AM,35.6,33.8,93,30.04,3.1,WNW,4.6,-,N/A,,Unknown,290,2012-11-06 01:20:00
1:50 AM,33.8,32.0,93,30.06,3.1,WNW,4.6,-,N/A,,Unknown,290,2012-11-06 01:50:00
2:20 AM,33.8,32.0,93,30.06,-9999.0,WNW,5.8,-,N/A,,Haze,300,2012-11-06 02:20:00
2:50 AM,35,33,91,30.07,3,WNW,5.8,,,,Light Haze,290,2012-11-06 02:50:00
2:50 AM,33.8,32.0,93,30.06,2.5,WNW,5.8,-,N/A,,Haze,300,2012-11-06 02:50:00
3:50 AM,33.8,32.0,93,30.06,-9999.0,WNW,4.6,-,N/A,,Mist,300,2012-11-06 03:50:00
4:20 AM,33.8,32.0,93,30.06,-9999.0,West,3.5,-,N/A,,Mist,270,2012-11-06 04:20:00
5:20 AM,33.8,32.0,93,30.09,-9999.0,West,2.3,-,N/A,,Mist,270,2012-11-06 05:20:00
5:50 AM,34,33,97,30.11,3,West,2.3,,,,Mist,260,2012-11-06 05:50:00
5:50 AM,33.8,32.0,93,30.09,3.7,West,3.5,-,N/A,,Unknown,280,2012-11-06 05:50:00
6:20 AM,32.0,30.2,93,30.12,3.7,WSW,8.1,-,N/A,,Unknown,250,2012-11-06 06:20:00
6:50 AM,33.8,32.0,93,30.12,3.1,SW,5.8,-,N/A,,Mist,230,2012-11-06 06:50:00
7:20 AM,33.8,32.0,93,30.12,3.1,SW,5.8,-,N/A,,Mist,230,2012-11-06 07:20:00
7:50 AM,33.8,32.0,93,30.12,3.7,WSW,6.9,-,N/A,,Unknown,240,2012-11-06 07:50:00
8:20 AM,35.6,33.8,93,30.15,3.7,SW,5.8,-,N/A,,Unknown,230,2012-11-06 08:20:00
8:50 AM,39,36,85,30.16,9,West,8.1,,,,Mostly Cloudy,260,2012-11-06 08:50:00
8:50 AM,39.2,37.4,93,30.15,-9999.0,West,6.9,-,N/A,,Clear,260,2012-11-06 08:50:00
9:20 AM,41.0,37.4,87,30.15,-9999.0,West,9.2,-,N/A,,Clear,260,2012-11-06 09:20:00
9:50 AM,42.8,37.4,81,30.15,-9999.0,West,10.4,-,N/A,,Clear,270,2012-11-06 09:50:00
10:20 AM,44.6,37.4,76,30.15,-9999.0,West,11.5,-,N/A,,Clear,270,2012-11-06 10:20:00
10:50 AM,46.4,39.2,76,30.18,-9999.0,WNW,9.2,-,N/A,,Clear,290,2012-11-06 10:50:00
11:20 AM,48.2,39.2,71,30.15,-9999.0,West,11.5,-,N/A,,Clear,270,2012-11-06 11:20:00
11:50 AM,49,39,58,30.17,15,West,11.5,,,,Mostly Cloudy,260,2012-11-06 11:50:00
11:50 AM,50.0,39.2,66,30.15,-9999.0,West,12.7,-,N/A,,Clear,270,2012-11-06 11:50:00
12:20 PM,48.2,39.2,71,30.15,6.2,West,13.8,-,N/A,,Partly Cloudy,270,2012-11-06 12:20:00
12:50 PM,50.0,39.2,66,30.15,6.2,West,12.7,-,N/A,,Partly Cloudy,260,2012-11-06 12:50:00
1:20 PM,50.0,41.0,71,30.15,6.2,West,15.0,-,N/A,,Partly Cloudy,270,2012-11-06 13:20:00
1:50 PM,50.0,41.0,71,30.15,6.2,West,12.7,-,N/A,,Scattered Clouds,270,2012-11-06 13:50:00
2:20 PM,50.0,41.0,71,30.15,6.2,West,13.8,-,N/A,,Mostly Cloudy,260,2012-11-06 14:20:00
2:50 PM,50,42,65,30.15,18,WSW,12.7,,,,Mostly Cloudy,250,2012-11-06 14:50:00
2:50 PM,50.0,41.0,71,30.15,6.2,West,13.8,-,N/A,,Mostly Cloudy,260,2012-11-06 14:50:00
3:20 PM,50.0,42.8,76,30.15,6.2,West,12.7,-,N/A,Rain,Light Rain,270,2012-11-06 15:20:00
3:50 PM,48.2,42.8,82,30.15,6.2,West,15.0,-,N/A,Rain,Light Rain,270,2012-11-06 15:50:00
4:20 PM,48.2,42.8,82,30.15,6.2,West,15.0,-,N/A,Rain,Light Rain,260,2012-11-06 16:20:00
4:50 PM,48.2,44.6,87,30.15,6.2,West,12.7,-,N/A,,Light Drizzle,260,2012-11-06 16:50:00
5:20 PM,48.2,44.6,87,30.15,6.2,West,13.8,-,N/A,,Mostly Cloudy,260,2012-11-06 17:20:00
5:50 PM,49,45,80,30.17,16,West,13.8,,,Rain,Rain,260,2012-11-06 17:50:00
5:50 PM,48.2,44.6,87,30.15,6.2,West,13.8,-,N/A,,Mostly Cloudy,270,2012-11-06 17:50:00
6:20 PM,50.0,44.6,82,30.15,6.2,West,13.8,-,N/A,,Mostly Cloudy,270,2012-11-06 18:20:00
6:50 PM,50.0,44.6,82,30.18,6.2,West,15.0,-,N/A,,Mostly Cloudy,270,2012-11-06 18:50:00
7:20 PM,50.0,44.6,82,30.18,6.2,West,12.7,-,N/A,,Overcast,270,2012-11-06 19:20:00
7:50 PM,48.2,44.6,87,30.18,6.2,West,15.0,-,N/A,,Partly Cloudy,270,2012-11-06 19:50:00
8:20 PM,48.2,44.6,87,30.18,-9999.0,West,12.7,-,N/A,,Clear,270,2012-11-06 20:20:00
8:50 PM,48,44,81,30.18,16,West,13.8,,,,Mostly Cloudy,260,2012-11-06 20:50:00
8:50 PM,50.0,44.6,82,30.18,-9999.0,West,12.7,-,N/A,,Clear,260,2012-11-06 20:50:00
9:20 PM,48.2,44.6,87,30.18,6.2,West,13.8,-,N/A,,Partly Cloudy,270,2012-11-06 21:20:00
9:50 PM,48.2,42.8,82,30.18,6.2,West,12.7,-,N/A,,Scattered Clouds,280,2012-11-06 21:50:00
10:20 PM,46.4,42.8,87,30.18,6.2,West,9.2,-,N/A,,Partly Cloudy,280,2012-11-06 22:20:00
10:50 PM,46.4,42.8,87,30.18,6.2,West,9.2,-,N/A,,Partly Cloudy,270,2012-11-06 22:50:00
11:20 PM,48.2,42.8,82,30.21,6.2,West,9.2,-,N/A,,Scattered Clouds,260,2012-11-06 23:20:00
11:50 PM,45,42,85,30.22,12,West,6.9,,,,Mostly Cloudy,260,2012-11-06 23:50:00
11:50 PM,46.4,42.8,87,30.21,6.2,West,5.8,-,N/A,,Scattered Clouds,270,2012-11-06 23:50:00